DELTA 1 DEB, 7041

Orbit data source: Space-Track

DELTA 1 DEB, 7041 is space debris in SSO originally from a launch on Tue, 06 Nov 1973 UTC launched from the Air Force Western Test Range (AFWTR). Debris objects in space refer to the collection of defunct objects orbiting the Earth. Examples of debris include non-operational satellites, rocket bodies, and fragments generated from explosions, collisions, or faulty payload assembly.

Loading next visibility...
Identifier
7041, 1973-086AH
Orbit
SSO
Country
Flag of USUS
Related business
Manufacturer
Unknown
Mission
Spacecraft
Bus & Motor
Unknown
Mass
Unknown
Launch date (UTC)
1973-11-06 (53 years ago)
Launch vehicle
Unknown
Launch site
Air Force Western Test Range (AFWTR)
Object type
Payload
Rocket body
Debris
Shape & HBR
Unknown shape, 0.2 m
Radar Cross Section
Medium (>0.1 m² and <1 m²)

Expand to show TLE details & history
Last TLE update: 14 hours ago

TLE from 14 hours ago
0 DELTA 1 DEB
1 07041U 73086AH  26263.31787164  .00000293  00000-0  24200-2 0  9996
2 07041 101.5487 281.5146 0186386  39.8073 334.7932 12.37985607366373
Epoch: 2026-09-20T07:37Z
TLE epoch observation values (Epoch: 2026-09-20T07:37:44.109Z)
Latitude
13.35979°
Longitude
165.0993°
Altitude
1,384.364 km
Speed
7.228 km/s
True Right ascension
18h 34m 59s
True Declination
13° 17' 20"
Sunlit
Object was in daylight at epoch
Visualization orbit readout
Latitude
Unknown
Longitude
Unknown
Altitude
Unknown
Speed
Unknown
Apparent Right ascension
Unknown
Apparent Declination
Unknown
Sunlit
N/A
Visualization observer readout
Local Sidereal Time
15:00:15
Azimuth
Unknown
Elevation
Unknown
Doppler factor
Unknown
Orbital elements
Apogee altitude
1,659.778 km
Perigee altitude
1,365.629 km
Semi-major axis
7,890.841 km
Eccentricity
0.01864
Inclination
101.5487°
RAAN
281.5146°
Arg. of periapsis
39.8073°
True anomaly
333.86405°
Mean anomaly
334.7932°
Eccentric anomaly
334.3306°
Mean motion
3.09641 °/min
Orbital period
116.26 mins
BSTAR
0.00242
Loading maneuver chart data...
Computing Atmospheric mass density...
Loading historical data...
Loading historical data...
Loading historical data...
Loading historical data...
Loading historical data...
Loading historical data...
Loading historical data...

Documentation

Showing up to 5 results
|